EHI
0 0 0 0 0 0 0 0 0 0 0 0 0 0 0 0 0 0 0 1 1 0 0 0 0 0 0 0 0 0 0 0 0 0 0 0 0 0 0 0 0 0 0 0
0 0 0 0 0 0 0 0 0 0 0 0 0 0 0 0 0 0 0 1 2 1 0 0 0 0 0 0 0 0 0 0 0 0 0 0 0 0 0 0 0 0 0 0
0 0 0 0 0 0 0 0 0 0 0 0 0 0 0 0 0 0 0 1 2 2 1 0 0 0 0 0 0 0 0 0 0 0 0 0 0 0 0 0 0 0 0 0
0 0 0 0 0 0 0 0 0 0 0 0 0 0 0 0 0 0 0 1 2 2 1 0 0 0 0 0 0 0 0 0 0 0 0 0 0 0 0 0 0 0 0 0
0 0 0 0 0 0 0 0 0 0 0 0 0 0 0 0 0 0 0 1 1 1 0 0 0 0 0 0 0 0 0 0 0 0 0 0 0 0 0 0 0 0 0 0
0 0 0 0 0 0 0 0 0 0 0 0 0 0 0 0 0 0 0 0 0 0 0 0 0 0 0 0 0 0 0 0 0 0 0 0 0 0 0 0 0 0 0 0
0 0 0 0 0 0 0 0 0 0 0 0 0 0 0 0 0 0 0 0 0 0 0 0 0 0 0 0 0 0 0 0 0 0 0 0 0 0 0 0 0 0 0 0
0 0 0 0 0 0 0 0 0 0 0 0 0 0 0 0 0 0 0 0 0 0 0 0 0 0 0 0 0 0 0 0 0 0 0 0 0 0 0 0 0 0 0 0
0 0 0 0 0 0 0 0 0 0 0 0 0 0 0 0 0 0 0 0 0 0 0 0 0 0 0 0 0 0 0 0 0 0 0 0 0 0 0 0 0 0 0 0
0 0 0 0 0 0 0 0 0 0 0 0 0 0 0 0 0 0 0 0 0 0 0 0 0 0 0 0 0 0 0 0 0 0 0 0 0 0 0 0 0 0 0 0
0 0 0 0 0 0 0 0 0 0 0 0 0 0 0 0 0 0 0 0 0 0 0 0 0 0 0 0 0 0 0 0 0 0 0 0 0 0 0 0 0 0 0 0
0 0 0 0 0 0 0 0 0 0 0 0 0 0 0 0 0 0 0 0 0 0 0 0 0 0 0 0 0 0 0 0 0 0 0 0 0 0 0 0 0 0 0 0
0 0 0 0 0 0 0 0 0 0 0 0 0 0 0 0 0 0 0 0 0 0 0 0 0 0 0 0 0 0 0 0 0 0 0 0 0 0 0 0 0 0 0 0
0 0 0 0 0 0 0 0 0 0 0 0 0 0 0 0 0 0 0 0 0 0 0 0 0 0 0 0 0 0 0 0 0 0 0 0 0 0 0 0 0 0 0 0
0 0 0 0 0 0 0 0 0 0 0 0 0 0 0 0 0 0 0 0 0 0 0 0 0 0 0 0 0 0 0 0 0 0 0 0 0 0 0 0 0 0 0 0
0 0 0 0 0 0 0 0 0 0 0 0 0 0 0 0 0 0 0 0 0 0 0 0 0 0 0 0 0 0 0 0 0 0 0 0 0 0 0 0 0 0 0 0
0 0 0 0 0 0 0 0 0 0 0 0 0 0 0 0 0 0 0 0 0 0 0 0 0 0 0 0 0 0 0 0 0 0 0 0 0 0 0 0 0 0 0 0
0 0 0 0 0 0 0 0 0 0 0 0 0 0 0 0 0 0 0 0 0 0 0 0 0 0 0 0 0 0 0 0 0 0 0 0 0 0 0 0 0 0 0 0
0 0 0 0 0 0 0 0 0 0 0 0 0 0 0 0 0 0 0 0 0 0 0 0 0 0 0 0 0 0 0 0 0 0 0 0 0 0 0 0 0 0 0 0
0 0 0 0 0 0 0 0 0 0 0 0 0 0 0 0 0 0 0 0 0 0 0 0 0 0 0 0 0 0 0 0 0 0 0 0 0 0 0 0 0 0 0 0
0 0 0 0 0 0 0 0 0 0 0 0 0 0 0 0 0 0 0 0 0 0 0 0 0 0 0 0 0 0 0 0 0 0 0 0 0 0 0 0 0 0 0 0
0 0 0 0 0 0 0 0 0 0 0 0 0 0 0 0 0 0 0 0 0 0 0 0 0 0 0 0 0 0 0 0 0 0 0 0 0 0 0 0 0 0 0 0
0 0 0 0 0 0 0 0 0 0 0 0 0 0 0 0 0 0 0 0 0 0 0 0 0 0 0 0 0 0 0 0 0 0 0 0 0 0 0 0 0 0 0 0
0 0 0 0 0 0 0 0 0 0 0 0 0 0 0 0 0 0 0 0 0 0 0 0 0 0 0 0 0 0 0 0 0 0 0 0 0 0 0 0 0 0 0 0
0 0 0 0 0 0 0 0 0 0 0 0 0 0 0 0 0 0 0 0 0 0 0 0 0 0 0 0 0 0 0 0 0 0 0 0 0 0 0 0 0 0 0 0
0 0 0 0 0 0 0 0 0 0 0 0 0 0 0 0 0 0 0 0 0 0 0 0 0 0 0 0 0 0 0 0 0 0 0 0 0 0 0 0 0 0 0 0
Wind_Speed
2 4 3 4 4 3 4 3 2 1 0 2 2 1 1 2 4 4 4 4 5 4 2 3 3 4 5 5 5 4 5 4 4 2 2 2 1 1 2 2 3 3 4 4
4 1 4 4 4 4 4 3 2 2 2 2 2 1 0 2 4 5 6 6 6 4 2 3 4 4 5 5 5 4 4 4 3 2 2 2 1 0 1 2 3 3 4 4
5 3 4 4 4 4 3 4 3 3 2 2 3 3 1 1 1 1 3 4 5 6 6 5 4 4 4 5 5 5 4 4 3 3 3 3 2 2 2 3 2 3 3 3
2 2 4 4 3 4 2 4 5 4 3 0 2 1 4 1 1 2 3 3 5 5 5 4 5 5 5 4 4 5 5 4 3 3 3 3 2 1 1 1 2 3 3 3
3 3 5 4 4 5 3 4 5 4 3 2 2 2 5 1 3 5 4 4 5 5 5 5 5 5 4 4 4 4 5 4 3 3 3 3 2 1 0 1 2 3 3 3
2 1 3 4 2 5 7 7 6 5 3 1 2 3 5 5 7 5 5 5 5 5 5 4 4 4 3 4 4 4 5 3 3 3 3 3 3 2 1 1 2 2 2 3
0 0 1 3 5 3 6 6 3 2 1 3 2 3 8 6 6 7 8 8 5 5 5 5 5 5 4 4 4 4 5 3 3 3 3 2 3 2 1 1 1 1 2 2
3 2 3 3 5 6 5 6 6 5 5 2 1 5 7 3 3 4 6 6 6 5 5 5 6 5 5 5 4 5 5 3 3 3 2 2 2 1 1 1 1 1 1 2
6 3 1 2 3 8 6 3 3 5 3 2 4 5 5 1 3 5 6 6 7 7 6 6 5 5 5 5 4 5 5 4 3 3 2 2 1 1 0 0 0 1 1 1
6 4 2 3 4 3 4 6 4 4 5 2 3 4 5 6 7 7 8 9 7 6 6 6 5 5 4 4 4 4 4 4 3 3 2 2 1 1 1 1 1 1 1 1
4 5 1 3 5 7 5 3 3 3 4 5 3 7 7 10 11 12 11 9 9 8 7 6 5 4 4 4 4 4 4 4 3 3 3 3 2 2 2 2 2 1 1 2
4 5 3 4 3 5 5 7 7 5 4 4 3 8 3 6 9 10 10 8 7 7 7 6 6 5 5 5 4 4 4 4 3 3 3 3 2 2 3 2 2 2 2 2
7 6 4 1 1 2 4 5 5 4 5 5 4 7 3 2 6 7 8 8 7 7 7 6 5 5 5 5 5 4 4 4 3 4 4 3 3 3 2 2 2 2 2 2
6 4 6 8 7 7 6 6 6 6 4 5 7 7 5 4 8 8 9 9 8 8 8 7 6 5 5 5 5 5 4 4 4 4 4 3 2 2 1 2 2 3 2 3
5 4 4 5 4 6 6 8 9 8 8 8 8 8 10 10 12 11 10 10 9 9 8 8 8 6 6 5 5 5 4 4 5 5 4 3 2 2 2 3 3 3 3 3
4 3 2 2 3 5 5 8 10 9 6 6 4 8 6 3 6 8 11 13 12 11 11 10 9 8 7 7 6 5 5 4 5 5 4 3 3 3 3 3 3 4 4 3
5 5 4 3 1 3 6 10 11 8 7 9 10 11 5 6 11 15 15 15 15 13 12 12 11 10 9 8 7 7 6 5 6 5 4 3 3 3 2 3 3 3 3 3
8 6 4 2 2 5 9 4 8 9 8 9 8 7 10 11 9 8 10 15 15 13 13 12 10 9 7 7 6 6 6 6 6 5 4 3 3 3 2 3 3 2 2 2
5 7 4 3 3 6 7 4 7 7 8 9 10 7 5 5 5 2 8 12 14 14 11 10 10 9 9 9 8 8 7 6 6 5 4 4 4 3 3 2 1 1 1 2
4 4 5 4 3 5 8 3 3 5 5 6 10 9 8 10 5 8 9 11 10 9 9 10 9 8 10 9 9 9 8 7 6 6 5 4 4 4 3 2 1 1 1 1
3 3 4 4 4 8 8 2 6 5 9 4 9 10 13 12 9 5 9 11 10 10 10 11 11 10 10 10 10 9 8 8 6 5 5 4 4 4 3 2 1 2 1 1
8 6 6 5 4 10 4 6 9 9 3 3 6 9 11 8 3 5 9 11 12 11 10 12 11 9 8 10 11 9 8 7 6 6 5 4 4 3 3 3 2 1 2 1
7 9 8 10 9 6 3 7 5 3 3 4 6 7 9 7 5 6 7 10 11 12 11 10 11 10 8 9 10 10 7 7 7 6 5 4 3 3 3 3 3 1 1 1
4 2 4 4 7 6 5 5 4 4 4 3 5 7 9 8 7 7 7 8 9 9 10 10 11 11 9 8 7 7 7 8 7 6 5 4 4 3 2 2 3 3 2 2
4 5 3 4 6 5 5 5 4 3 3 3 4 5 8 9 8 8 8 9 9 8 8 10 11 11 11 9 7 6 7 8 7 6 5 4 4 3 3 3 3 4 4 5
6 8 8 7 7 6 5 3 3 4 4 5 6 5 5 8 8 8 8 8 8 9 9 9 9 9 9 9 8 6 7 8 8 5 5 4 3 3 3 2 3 5 6 8
Wind_Direction
94 95 149 173 174 155 137 130 130 146 359 120 143 163 183 175 169 186 192 193 201 214 212 152 149 141 131 126 125 127 124 124 119 102 95 85 53 10 11 11 19 24 23 25
73 168 192 159 153 132 125 117 119 70 44 113 114 50 255 198 197 199 195 196 195 190 165 151 146 144 146 147 144 139 140 140 136 121 122 124 122 52 347 346 8 19 19 15
152 202 175 148 142 137 141 161 168 141 75 53 90 356 306 268 236 201 195 192 185 184 179 170 157 158 153 158 164 160 153 143 136 122 103 79 56 33 15 2 354 354 10 18
168 194 156 146 160 143 184 177 158 140 117 10 114 197 275 239 256 215 208 191 186 182 173 168 161 162 170 173 161 150 144 138 137 136 129 123 117 117 273 297 320 339 2 9
198 170 161 169 185 154 158 124 123 116 120 72 52 134 275 197 225 226 210 193 186 179 170 168 167 166 165 158 151 145 135 131 135 138 139 126 120 140 2 1 358 356 355 357
198 188 175 174 134 137 121 93 73 58 75 145 211 167 258 219 210 202 195 190 181 174 162 153 141 129 131 127 126 130 133 131 135 138 137 136 136 130 87 21 355 345 341 344
101 256 185 124 101 95 119 113 94 73 89 237 216 200 246 238 209 188 185 186 177 165 154 148 144 143 145 138 136 132 133 131 134 135 137 145 151 151 162 216 282 316 331 335
159 223 205 174 152 154 159 141 152 166 187 234 230 230 253 272 202 164 160 162 159 159 158 156 158 157 154 148 140 137 139 136 133 134 136 127 133 142 174 206 216 266 277 291
167 212 199 158 129 132 136 157 153 122 127 140 250 275 299 106 129 147 150 157 171 171 165 159 153 152 150 144 146 149 143 133 134 140 129 109 101 115 125 34 33 297 297 311
155 159 187 142 88 48 141 141 117 132 148 193 261 257 234 201 192 180 176 181 180 168 161 152 152 153 147 143 137 130 131 132 127 125 125 110 93 78 73 71 44 353 335 354
149 138 144 142 172 170 137 141 137 133 155 154 214 260 223 199 187 185 190 186 175 169 164 158 154 148 138 128 126 125 126 121 117 120 108 94 81 70 67 59 32 10 6 13
154 123 156 215 209 182 171 173 157 158 192 175 181 264 275 203 185 180 179 176 169 163 157 153 150 142 136 133 129 129 129 128 130 122 108 98 82 72 61 41 19 21 23 18
148 127 113 70 35 184 192 182 171 138 125 157 175 261 325 164 162 169 167 165 161 154 149 145 148 151 150 146 141 140 139 137 127 118 110 96 78 69 53 29 19 26 33 31
128 136 165 185 199 180 188 184 170 147 160 192 218 248 279 200 178 175 172 165 159 158 157 156 159 161 157 153 150 146 141 136 130 120 112 101 86 75 54 41 37 33 38 44
134 172 207 225 203 174 189 189 183 187 191 190 222 224 240 213 192 182 169 159 158 165 168 169 168 166 159 153 150 146 140 136 131 121 113 110 98 80 67 57 46 39 40 43
144 167 180 264 217 198 213 209 198 205 201 216 238 253 243 175 147 156 167 169 175 179 180 176 170 167 167 165 159 151 147 144 133 126 127 121 100 81 68 60 54 50 42 36
160 150 150 240 221 141 243 218 198 197 196 184 210 231 180 165 181 184 181 182 185 184 181 179 177 176 173 170 160 157 154 141 133 131 130 123 111 95 77 73 67 55 42 41
150 145 150 163 123 217 240 223 190 197 216 202 215 217 191 196 194 188 182 183 186 183 181 180 174 171 165 158 151 143 139 138 137 137 137 135 126 115 99 83 72 55 52 57
146 141 133 140 190 269 290 241 177 180 240 212 210 219 190 120 93 227 202 192 191 184 177 173 168 161 155 156 151 140 139 140 141 148 153 154 144 135 123 110 99 86 82 65
76 104 121 135 167 233 251 253 169 129 263 232 193 192 161 131 155 234 197 184 177 163 158 155 149 145 153 157 150 145 149 153 165 171 168 161 152 149 153 160 153 137 120 108
119 105 142 166 210 256 250 219 125 154 237 226 182 176 166 179 197 192 156 169 165 156 153 152 152 157 163 157 152 153 158 177 180 165 155 155 160 164 165 158 152 142 122 86
168 164 180 155 192 252 235 149 178 212 224 180 176 173 176 188 149 130 150 156 154 150 148 154 156 157 154 157 156 160 177 180 160 153 155 164 172 177 156 151 154 145 135 116
190 186 183 186 210 237 218 212 232 203 199 196 180 177 169 164 161 151 151 154 158 156 156 156 154 150 154 164 164 171 181 160 151 152 164 173 173 175 164 164 169 168 164 169
244 160 151 234 264 262 260 255 256 221 216 203 178 162 159 160 158 151 149 152 154 155 157 152 148 152 164 172 175 174 162 156 152 161 173 173 173 184 188 187 184 184 194 204
208 158 170 243 270 294 283 244 233 209 186 154 144 155 159 151 151 154 155 159 158 154 155 157 161 166 171 171 174 167 157 154 157 166 172 176 182 187 199 211 212 208 216 204
192 175 175 218 224 200 243 263 201 175 175 164 143 133 142 152 153 150 155 157 154 154 153 157 161 163 165 167 172 169 163 161 160 168 179 183 186 194 201 217 261 253 242 255